Time,TemperatureF,DewpointF,PressureIn,WindDirection,WindDirectionDegrees,WindSpeedMPH,WindSpeedGustMPH,Humidity,HourlyPrecipIn,Conditions,Clouds,dailyrainin,SoftwareType,DateUTC
2013-04-12 00:00:00,37.6,35.2,29.47,North,0,0.0,0.0,91,0.00,,,-99.99,VWS V12.07,2013-04-12 05:00:00,
2013-04-12 00:11:00,37.8,35.4,29.47,North,0,0.0,0.0,91,0.00,,,-99.99,VWS V12.07,2013-04-12 05:11:00,
2013-04-12 00:20:00,37.8,35.4,29.47,North,0,0.0,0.0,91,0.00,,,-99.99,VWS V12.07,2013-04-12 05:20:00,
2013-04-12 00:25:00,37.8,35.4,29.47,North,0,0.0,0.0,91,0.00,,,-99.99,VWS V12.07,2013-04-12 05:25:00,
2013-04-12 00:30:00,37.9,35.5,29.47,North,0,0.0,0.0,91,0.00,,,-99.99,VWS V12.07,2013-04-12 05:30:00,
2013-04-12 00:41:00,37.9,35.5,29.47,North,0,0.0,0.0,91,0.00,,,-99.99,VWS V12.07,2013-04-12 05:41:00,
2013-04-12 00:50:00,37.9,35.5,29.47,North,0,0.0,0.0,91,0.00,,,-99.99,VWS V12.07,2013-04-12 05:50:00,
2013-04-12 00:55:00,37.9,35.5,29.47,North,0,0.0,0.0,91,0.00,,,-99.99,VWS V12.07,2013-04-12 05:55:00,
2013-04-12 01:00:00,37.9,35.5,29.47,North,0,0.0,0.0,91,0.00,,,-99.99,VWS V12.07,2013-04-12 06:00:00,
2013-04-12 01:06:00,37.8,35.4,29.47,North,0,0.0,0.0,91,0.00,,,-99.99,VWS V12.07,2013-04-12 06:06:00,
2013-04-12 01:15:00,37.8,35.4,29.47,North,0,0.0,0.0,91,0.00,,,-99.99,VWS V12.07,2013-04-12 06:15:00,
2013-04-12 01:20:00,37.8,35.4,29.44,North,0,0.0,0.0,91,0.00,,,-99.99,VWS V12.07,2013-04-12 06:20:00,
2013-04-12 01:25:00,37.8,35.4,29.44,North,0,0.0,0.0,91,0.00,,,-99.99,VWS V12.07,2013-04-12 06:25:00,
2013-04-12 01:31:00,37.8,35.4,29.44,North,0,0.0,0.0,91,0.00,,,-99.99,VWS V12.07,2013-04-12 06:31:00,
2013-04-12 01:40:00,37.9,35.5,29.44,North,0,0.0,0.0,91,0.00,,,-99.99,VWS V12.07,2013-04-12 06:40:00,
2013-04-12 01:45:00,37.9,35.5,29.44,North,0,0.0,0.0,91,0.00,,,-99.99,VWS V12.07,2013-04-12 06:45:00,
2013-04-12 01:50:00,37.9,35.5,29.44,North,0,0.0,0.0,91,0.04,,,-99.99,VWS V12.07,2013-04-12 06:50:00,
2013-04-12 01:55:00,37.9,35.5,29.44,North,0,0.0,0.0,91,0.04,,,-99.99,VWS V12.07,2013-04-12 06:55:00,
2013-04-12 02:00:00,37.8,35.4,29.44,North,0,0.0,0.0,91,0.04,,,-99.99,VWS V12.07,2013-04-12 07:00:00,
2013-04-12 02:10:00,37.6,34.9,29.44,North,0,0.0,0.0,90,0.04,,,-99.99,VWS V12.07,2013-04-12 07:10:00,
2013-04-12 02:15:00,37.8,35.4,29.44,North,0,0.0,0.0,91,0.04,,,-99.99,VWS V12.07,2013-04-12 07:15:00,
2013-04-12 02:20:00,37.8,35.4,29.44,North,0,0.0,0.0,91,0.04,,,-99.99,VWS V12.07,2013-04-12 07:20:00,
2013-04-12 02:25:00,37.6,34.9,29.44,North,0,0.0,0.0,90,0.04,,,-99.99,VWS V12.07,2013-04-12 07:25:00,
2013-04-12 02:30:00,37.8,35.1,29.44,North,0,0.0,0.0,90,0.04,,,-99.99,VWS V12.07,2013-04-12 07:30:00,
2013-04-12 02:40:00,37.6,34.9,29.44,North,0,0.0,0.0,90,0.04,,,-99.99,VWS V12.07,2013-04-12 07:40:00,
2013-04-12 02:45:00,37.8,35.1,29.44,North,0,0.0,0.0,90,0.04,,,-99.99,VWS V12.07,2013-04-12 07:45:00,
2013-04-12 02:50:00,37.8,35.1,29.44,North,0,0.0,0.0,90,0.04,,,-99.99,VWS V12.07,2013-04-12 07:50:00,
2013-04-12 02:55:00,37.8,35.1,29.44,North,0,0.0,0.0,90,0.04,,,-99.99,VWS V12.07,2013-04-12 07:55:00,
2013-04-12 03:00:00,37.6,34.9,29.44,North,0,0.0,0.0,90,0.00,,,-99.99,VWS V12.07,2013-04-12 08:00:00,
2013-04-12 03:10:00,37.9,35.3,29.44,North,0,0.0,0.0,90,0.00,,,-99.99,VWS V12.07,2013-04-12 08:10:00,
2013-04-12 03:15:00,37.9,35.3,29.44,North,0,0.0,0.0,90,0.00,,,-99.99,VWS V12.07,2013-04-12 08:15:00,
2013-04-12 03:20:00,37.8,35.1,29.44,North,0,0.0,0.0,90,0.00,,,-99.99,VWS V12.07,2013-04-12 08:20:00,
2013-04-12 03:25:00,37.8,35.1,29.44,North,0,0.0,0.0,90,0.00,,,-99.99,VWS V12.07,2013-04-12 08:25:00,
2013-04-12 03:31:00,37.9,35.3,29.44,North,0,0.0,0.0,90,0.00,,,-99.99,VWS V12.07,2013-04-12 08:31:00,
2013-04-12 03:40:00,38.1,35.5,29.41,North,0,0.0,0.0,90,0.00,,,-99.99,VWS V12.07,2013-04-12 08:40:00,
2013-04-12 03:45:00,38.1,35.5,29.41,North,0,0.0,0.0,90,0.00,,,-99.99,VWS V12.07,2013-04-12 08:45:00,
2013-04-12 03:50:00,38.1,35.5,29.41,North,0,0.0,0.0,90,0.00,,,-99.99,VWS V12.07,2013-04-12 08:50:00,
2013-04-12 03:55:00,38.1,35.5,29.41,North,0,0.0,0.0,90,0.00,,,-99.99,VWS V12.07,2013-04-12 08:55:00,
2013-04-12 04:05:00,38.3,35.6,29.41,North,0,0.0,0.0,90,0.00,,,-99.99,VWS V12.07,2013-04-12 09:05:00,
2013-04-12 04:10:00,38.1,35.5,29.41,North,0,0.0,0.0,90,0.00,,,-99.99,VWS V12.07,2013-04-12 09:10:00,
2013-04-12 04:15:00,38.3,35.6,29.41,North,0,0.0,0.0,90,0.00,,,-99.99,VWS V12.07,2013-04-12 09:15:00,
2013-04-12 04:20:00,38.1,35.5,29.41,North,0,0.0,0.0,90,0.00,,,-99.99,VWS V12.07,2013-04-12 09:20:00,
2013-04-12 04:26:00,38.1,35.5,29.41,North,0,0.0,0.0,90,0.00,,,-99.99,VWS V12.07,2013-04-12 09:26:00,
2013-04-12 04:35:00,38.5,35.8,29.41,North,0,0.0,0.0,90,0.00,,,-99.99,VWS V12.07,2013-04-12 09:35:00,
2013-04-12 04:40:00,38.3,35.6,29.41,North,0,0.0,0.0,90,0.00,,,-99.99,VWS V12.07,2013-04-12 09:40:00,
2013-04-12 04:45:00,38.3,35.6,29.41,North,0,0.0,0.0,90,0.00,,,-99.99,VWS V12.07,2013-04-12 09:45:00,
2013-04-12 04:50:00,38.5,35.8,29.41,North,0,0.0,0.0,90,0.00,,,-99.99,VWS V12.07,2013-04-12 09:50:00,
2013-04-12 05:00:00,38.7,36.0,29.41,North,0,0.0,0.0,90,0.00,,,-99.99,VWS V12.07,2013-04-12 10:00:00,
2013-04-12 05:10:00,38.5,35.8,29.41,North,0,0.0,0.0,90,0.00,,,-99.99,VWS V12.07,2013-04-12 10:10:00,
2013-04-12 05:15:00,38.5,35.8,29.41,North,0,0.0,0.0,90,0.00,,,-99.99,VWS V12.07,2013-04-12 10:15:00,
2013-04-12 05:20:00,38.5,35.8,29.41,North,0,0.0,0.0,90,0.00,,,-99.99,VWS V12.07,2013-04-12 10:20:00,
2013-04-12 05:25:00,38.5,35.8,29.41,North,0,0.0,0.0,90,0.00,,,-99.99,VWS V12.07,2013-04-12 10:25:00,
2013-04-12 05:35:00,38.1,35.5,29.41,North,0,0.0,0.0,90,0.00,,,-99.99,VWS V12.07,2013-04-12 10:35:00,
2013-04-12 05:45:00,38.1,35.2,29.41,North,0,0.0,0.0,89,0.00,,,-99.99,VWS V12.07,2013-04-12 10:45:00,
2013-04-12 05:50:00,37.9,35.0,29.41,North,0,0.0,0.0,89,0.00,,,-99.99,VWS V12.07,2013-04-12 10:50:00,
2013-04-12 05:56:00,37.9,35.0,29.41,North,0,0.0,0.0,89,0.00,,,-99.99,VWS V12.07,2013-04-12 10:56:00,
2013-04-12 06:05:00,37.8,34.8,29.41,North,0,0.0,0.0,89,0.04,,,-99.99,VWS V12.07,2013-04-12 11:05:00,
2013-04-12 06:10:00,37.6,34.6,29.41,North,0,0.0,0.0,89,0.04,,,-99.99,VWS V12.07,2013-04-12 11:10:00,
2013-04-12 06:15:00,37.6,34.6,29.41,North,0,0.0,0.0,89,0.04,,,-99.99,VWS V12.07,2013-04-12 11:15:00,
2013-04-12 06:20:00,37.6,34.6,29.41,North,0,0.0,0.0,89,0.04,,,-99.99,VWS V12.07,2013-04-12 11:20:00,
2013-04-12 06:26:00,37.4,34.5,29.41,North,0,0.0,0.0,89,0.04,,,-99.99,VWS V12.07,2013-04-12 11:26:00,
2013-04-12 06:35:00,37.6,34.6,29.41,North,0,0.0,0.0,89,0.04,,,-99.99,VWS V12.07,2013-04-12 11:35:00,
2013-04-12 06:40:00,37.6,34.6,29.41,North,0,0.0,0.0,89,0.04,,,-99.99,VWS V12.07,2013-04-12 11:40:00,
2013-04-12 06:45:00,37.4,34.2,29.41,North,0,0.0,0.0,88,0.04,,,-99.99,VWS V12.07,2013-04-12 11:45:00,
2013-04-12 06:51:00,37.4,34.2,29.41,North,0,0.0,0.0,88,0.04,,,-99.99,VWS V12.07,2013-04-12 11:51:00,
2013-04-12 07:00:00,37.4,34.2,29.41,North,0,0.0,0.0,88,0.04,,,-99.99,VWS V12.07,2013-04-12 12:00:00,
2013-04-12 07:10:00,37.4,34.2,29.41,North,0,0.0,0.0,88,0.04,,,-99.99,VWS V12.07,2013-04-12 12:10:00,
2013-04-12 07:15:00,37.4,34.2,29.41,North,0,0.0,0.0,88,0.04,,,-99.99,VWS V12.07,2013-04-12 12:15:00,
2013-04-12 07:25:00,37.4,34.2,29.41,North,0,0.0,0.0,88,0.04,,,-99.99,VWS V12.07,2013-04-12 12:25:00,
2013-04-12 07:30:00,37.4,34.2,29.41,North,0,0.0,0.0,88,0.04,,,-99.99,VWS V12.07,2013-04-12 12:30:00,
2013-04-12 07:35:00,37.4,34.2,29.41,North,0,0.0,0.0,88,0.04,,,-99.99,VWS V12.07,2013-04-12 12:35:00,
2013-04-12 07:46:00,37.4,34.2,29.41,North,0,0.0,0.0,88,0.04,,,-99.99,VWS V12.07,2013-04-12 12:46:00,
2013-04-12 07:55:00,37.6,34.3,29.41,North,0,0.0,0.0,88,0.04,,,-99.99,VWS V12.07,2013-04-12 12:55:00,
2013-04-12 08:00:00,37.6,34.3,29.41,North,0,0.0,0.0,88,0.00,,,-99.99,VWS V12.07,2013-04-12 13:00:00,
2013-04-12 08:10:00,37.8,34.5,29.44,North,0,0.0,0.0,88,0.00,,,-99.99,VWS V12.07,2013-04-12 13:10:00,
2013-04-12 08:16:00,37.8,34.5,29.44,North,0,0.0,0.0,88,0.00,,,-99.99,VWS V12.07,2013-04-12 13:16:00,
2013-04-12 08:25:00,37.8,34.5,29.44,North,0,0.0,0.0,88,0.00,,,-99.99,VWS V12.07,2013-04-12 13:25:00,
2013-04-12 08:30:00,37.9,34.7,29.44,North,0,0.0,0.0,88,0.00,,,-99.99,VWS V12.07,2013-04-12 13:30:00,
2013-04-12 08:35:00,37.9,34.7,29.44,North,0,0.0,0.0,88,0.00,,,-99.99,VWS V12.07,2013-04-12 13:35:00,
2013-04-12 08:40:00,38.1,34.9,29.44,North,0,0.0,0.0,88,0.00,,,-99.99,VWS V12.07,2013-04-12 13:40:00,
2013-04-12 08:50:00,38.3,35.1,29.44,North,0,0.0,0.0,88,0.00,,,-99.99,VWS V12.07,2013-04-12 13:50:00,
2013-04-12 08:55:00,38.5,35.2,29.44,North,0,0.0,0.0,88,0.00,,,-99.99,VWS V12.07,2013-04-12 13:55:00,
2013-04-12 09:00:00,38.5,35.2,29.44,North,0,0.0,0.0,88,0.00,,,-99.99,VWS V12.07,2013-04-12 14:00:00,
2013-04-12 09:11:00,38.5,35.0,29.44,North,0,0.0,0.0,87,0.00,,,-99.99,VWS V12.07,2013-04-12 14:11:00,
2013-04-12 09:20:00,38.7,35.1,29.44,North,0,0.0,0.0,87,0.00,,,-99.99,VWS V12.07,2013-04-12 14:20:00,
2013-04-12 09:25:00,38.7,35.1,29.44,North,0,0.0,0.0,87,0.00,,,-99.99,VWS V12.07,2013-04-12 14:25:00,
2013-04-12 09:30:00,38.7,35.1,29.44,North,0,0.0,0.0,87,0.00,,,-99.99,VWS V12.07,2013-04-12 14:30:00,
2013-04-12 09:35:00,38.8,35.3,29.44,North,0,0.0,0.0,87,0.00,,,-99.99,VWS V12.07,2013-04-12 14:35:00,
2013-04-12 09:41:00,38.8,35.3,29.44,North,0,0.0,0.0,87,0.00,,,-99.99,VWS V12.07,2013-04-12 14:41:00,
2013-04-12 09:50:00,39.2,35.7,29.44,North,0,0.0,0.0,87,0.00,,,-99.99,VWS V12.07,2013-04-12 14:50:00,
2013-04-12 10:00:00,39.2,35.7,29.44,North,0,0.0,0.0,87,0.00,,,-99.99,VWS V12.07,2013-04-12 15:00:00,
2013-04-12 10:10:00,39.6,36.0,29.44,North,0,0.0,0.0,87,0.00,,,-99.99,VWS V12.07,2013-04-12 15:10:00,
2013-04-12 10:15:00,39.7,36.2,29.44,North,0,0.0,0.0,87,0.00,,,-99.99,VWS V12.07,2013-04-12 15:15:00,
2013-04-12 10:20:00,39.7,35.9,29.44,North,0,0.0,0.0,86,0.00,,,-99.99,VWS V12.07,2013-04-12 15:20:00,
2013-04-12 10:25:00,39.7,35.9,29.44,North,0,0.0,0.0,86,0.00,,,-99.99,VWS V12.07,2013-04-12 15:25:00,
2013-04-12 10:30:00,39.6,35.7,29.44,North,0,0.0,0.0,86,0.00,,,-99.99,VWS V12.07,2013-04-12 15:30:00,
2013-04-12 10:36:00,39.7,35.9,29.44,North,0,0.0,0.0,86,0.00,,,-99.99,VWS V12.07,2013-04-12 15:36:00,
2013-04-12 10:45:00,40.3,36.4,29.44,North,0,0.0,0.0,86,0.00,,,-99.99,VWS V12.07,2013-04-12 15:45:00,
2013-04-12 10:55:00,40.3,36.4,29.44,North,0,0.0,0.0,86,0.00,,,-99.99,VWS V12.07,2013-04-12 15:55:00,
2013-04-12 11:00:00,40.3,36.4,29.44,North,0,0.0,0.0,86,0.00,,,-99.99,VWS V12.07,2013-04-12 16:00:00,
2013-04-12 11:06:00,40.3,36.4,29.47,North,0,0.0,0.0,86,0.00,,,-99.99,VWS V12.07,2013-04-12 16:06:00,
2013-04-12 11:15:00,40.3,36.1,29.47,North,0,0.0,0.0,85,0.00,,,-99.99,VWS V12.07,2013-04-12 16:15:00,
2013-04-12 11:20:00,40.3,36.1,29.47,North,0,0.0,0.0,85,0.00,,,-99.99,VWS V12.07,2013-04-12 16:20:00,
2013-04-12 11:25:00,40.6,36.5,29.47,North,0,0.0,0.0,85,0.00,,,-99.99,VWS V12.07,2013-04-12 16:25:00,
2013-04-12 11:30:00,41.0,36.8,29.47,North,0,0.0,0.0,85,0.00,,,-99.99,VWS V12.07,2013-04-12 16:30:00,
2013-04-12 11:41:00,41.0,36.5,29.47,North,0,0.0,0.0,84,0.00,,,-99.99,VWS V12.07,2013-04-12 16:41:00,
2013-04-12 11:50:00,40.8,36.4,29.47,North,0,0.0,0.0,84,0.00,,,-99.99,VWS V12.07,2013-04-12 16:50:00,
2013-04-12 11:55:00,40.6,36.2,29.47,North,0,0.0,0.0,84,0.00,,,-99.99,VWS V12.07,2013-04-12 16:55:00,
2013-04-12 12:00:00,40.6,35.9,29.47,North,0,0.0,0.0,83,0.00,,,-99.99,VWS V12.07,2013-04-12 17:00:00,
2013-04-12 12:10:00,41.0,36.2,29.47,North,0,0.0,0.0,83,0.00,,,-99.99,VWS V12.07,2013-04-12 17:10:00,
2013-04-12 12:15:00,41.0,36.2,29.47,North,0,0.0,0.0,83,0.00,,,-99.99,VWS V12.07,2013-04-12 17:15:00,
2013-04-12 12:20:00,41.0,35.9,29.47,North,0,0.0,0.0,82,0.00,,,-99.99,VWS V12.07,2013-04-12 17:20:00,
2013-04-12 12:25:00,41.2,36.1,29.47,North,0,0.0,0.0,82,0.00,,,-99.99,VWS V12.07,2013-04-12 17:25:00,
2013-04-12 12:30:00,41.5,36.5,29.47,North,0,0.0,0.0,82,0.00,,,-99.99,VWS V12.07,2013-04-12 17:30:00,
2013-04-12 12:40:00,41.9,36.8,29.47,North,0,0.0,0.0,82,0.00,,,-99.99,VWS V12.07,2013-04-12 17:40:00,
2013-04-12 12:50:00,41.5,36.2,29.50,North,0,0.0,0.0,81,0.00,,,-99.99,VWS V12.07,2013-04-12 17:50:00,
2013-04-12 12:55:00,41.7,36.3,29.50,North,0,0.0,0.0,81,0.00,,,-99.99,VWS V12.07,2013-04-12 17:55:00,
2013-04-12 13:00:00,42.3,36.9,29.50,North,0,0.0,0.0,81,0.00,,,-99.99,VWS V12.07,2013-04-12 18:00:00,
2013-04-12 13:06:00,42.4,37.0,29.50,North,0,0.0,0.0,81,0.00,,,-99.99,VWS V12.07,2013-04-12 18:06:00,
2013-04-12 14:30:00,43.0,32.0,29.53,North,0,0.0,0.0,65,0.00,,,-99.99,VWS V12.07,2013-04-12 19:30:00,
2013-04-12 14:35:00,42.6,31.7,29.53,North,0,0.0,0.0,65,0.00,,,-99.99,VWS V12.07,2013-04-12 19:35:00,
2013-04-12 14:40:00,42.4,31.5,29.53,North,0,0.0,0.0,65,0.00,,,-99.99,VWS V12.07,2013-04-12 19:40:00,
2013-04-12 14:45:00,42.3,31.0,29.53,North,0,0.0,0.0,64,0.00,,,-99.99,VWS V12.07,2013-04-12 19:45:00,
2013-04-12 14:50:00,42.3,31.0,29.53,North,0,0.0,0.0,64,0.00,,,-99.99,VWS V12.07,2013-04-12 19:50:00,
2013-04-12 14:55:00,42.3,31.0,29.53,North,0,0.0,0.0,64,0.00,,,-99.99,VWS V12.07,2013-04-12 19:55:00,
2013-04-12 15:01:00,42.3,31.0,29.53,North,0,0.0,0.0,64,0.00,,,-99.99,VWS V12.07,2013-04-12 20:01:00,
2013-04-12 15:10:00,42.6,31.3,29.53,North,0,0.0,0.0,64,0.00,,,-99.99,VWS V12.07,2013-04-12 20:10:00,
2013-04-12 15:15:00,42.6,30.9,29.53,North,0,0.0,0.0,63,0.00,,,-99.99,VWS V12.07,2013-04-12 20:15:00,
2013-04-12 15:20:00,42.6,30.9,29.53,North,0,0.0,0.0,63,0.00,,,-99.99,VWS V12.07,2013-04-12 20:20:00,
2013-04-12 15:25:00,42.6,30.5,29.53,North,0,0.0,0.0,62,0.00,,,-99.99,VWS V12.07,2013-04-12 20:25:00,
2013-04-12 15:30:00,42.4,30.0,29.53,North,0,0.0,0.0,61,0.00,,,-99.99,VWS V12.07,2013-04-12 20:30:00,
2013-04-12 15:36:00,42.4,30.0,29.53,North,0,0.0,0.0,61,0.00,,,-99.99,VWS V12.07,2013-04-12 20:36:00,
2013-04-12 15:45:00,42.4,29.5,29.53,North,0,0.0,0.0,60,0.00,,,-99.99,VWS V12.07,2013-04-12 20:45:00,
2013-04-12 15:50:00,42.4,30.0,29.53,North,0,0.0,0.0,61,0.00,,,-99.99,VWS V12.07,2013-04-12 20:50:00,
2013-04-12 15:55:00,42.3,29.4,29.53,North,0,0.0,0.0,60,0.00,,,-99.99,VWS V12.07,2013-04-12 20:55:00,
2013-04-12 16:00:00,42.1,29.2,29.53,North,0,0.0,0.0,60,0.00,,,-99.99,VWS V12.07,2013-04-12 21:00:00,
2013-04-12 16:10:00,41.9,29.0,29.56,North,0,0.0,0.0,60,0.00,,,-99.99,VWS V12.07,2013-04-12 21:10:00,
2013-04-12 16:15:00,41.9,29.5,29.56,North,0,0.0,0.0,61,0.00,,,-99.99,VWS V12.07,2013-04-12 21:15:00,
2013-04-12 16:20:00,41.9,29.5,29.56,North,0,0.0,0.0,61,0.00,,,-99.99,VWS V12.07,2013-04-12 21:20:00,
2013-04-12 16:25:00,41.7,29.3,29.56,North,0,0.0,0.0,61,0.00,,,-99.99,VWS V12.07,2013-04-12 21:25:00,
2013-04-12 16:30:00,41.5,29.1,29.56,North,0,0.0,0.0,61,0.00,,,-99.99,VWS V12.07,2013-04-12 21:30:00,
2013-04-12 16:36:00,41.5,29.1,29.56,North,0,0.0,0.0,61,0.00,,,-99.99,VWS V12.07,2013-04-12 21:36:00,
2013-04-12 16:45:00,41.4,29.3,29.56,North,0,0.0,0.0,62,0.00,,,-99.99,VWS V12.07,2013-04-12 21:45:00,
2013-04-12 16:50:00,41.2,29.2,29.59,North,0,0.0,0.0,62,0.00,,,-99.99,VWS V12.07,2013-04-12 21:50:00,
2013-04-12 16:55:00,41.2,29.2,29.59,North,0,0.0,0.0,62,0.00,,,-99.99,VWS V12.07,2013-04-12 21:55:00,
2013-04-12 17:00:00,40.8,29.6,29.59,North,0,0.0,0.0,64,0.00,,,-99.99,VWS V12.07,2013-04-12 22:00:00,
2013-04-12 17:10:00,40.5,30.0,29.59,North,0,0.0,0.0,66,0.00,,,-99.99,VWS V12.07,2013-04-12 22:10:00,
2013-04-12 17:15:00,40.3,29.8,29.59,North,0,0.0,0.0,66,0.00,,,-99.99,VWS V12.07,2013-04-12 22:15:00,
2013-04-12 17:20:00,40.3,30.2,29.59,North,0,0.0,0.0,67,0.00,,,-99.99,VWS V12.07,2013-04-12 22:20:00,
2013-04-12 17:25:00,40.3,30.6,29.59,North,0,0.0,0.0,68,0.00,,,-99.99,VWS V12.07,2013-04-12 22:25:00,
2013-04-12 17:30:00,40.1,30.4,29.59,North,0,0.0,0.0,68,0.00,,,-99.99,VWS V12.07,2013-04-12 22:30:00,
2013-04-12 17:35:00,39.9,30.6,29.59,North,0,0.0,0.0,69,0.00,,,-99.99,VWS V12.07,2013-04-12 22:35:00,
2013-04-12 17:40:00,39.9,30.9,29.59,North,0,0.0,0.0,70,0.00,,,-99.99,VWS V12.07,2013-04-12 22:40:00,
2013-04-12 17:45:00,39.9,30.9,29.59,North,0,0.0,0.0,70,0.00,,,-99.99,VWS V12.07,2013-04-12 22:45:00,
2013-04-12 17:50:00,39.9,31.3,29.59,North,0,0.0,0.0,71,0.00,,,-99.99,VWS V12.07,2013-04-12 22:50:00,
2013-04-12 17:55:00,39.7,31.1,29.59,North,0,0.0,0.0,71,0.00,,,-99.99,VWS V12.07,2013-04-12 22:55:00,
2013-04-12 18:00:00,39.7,31.5,29.59,North,0,0.0,0.0,72,0.00,,,-99.99,VWS V12.07,2013-04-12 23:00:00,
2013-04-12 18:06:00,39.6,31.3,29.62,North,0,0.0,0.0,72,0.00,,,-99.99,VWS V12.07,2013-04-12 23:06:00,
2013-04-12 18:15:00,39.2,31.3,29.62,North,0,0.0,0.0,73,0.00,,,-99.99,VWS V12.07,2013-04-12 23:15:00,
2013-04-12 18:20:00,39.0,31.1,29.62,North,0,0.0,0.0,73,0.00,,,-99.99,VWS V12.07,2013-04-12 23:20:00,
2013-04-12 18:25:00,38.8,31.3,29.62,North,0,0.0,0.0,74,0.00,,,-99.99,VWS V12.07,2013-04-12 23:25:00,
2013-04-12 18:30:00,38.7,31.1,29.62,North,0,0.0,0.0,74,0.00,,,-99.99,VWS V12.07,2013-04-12 23:30:00,
2013-04-12 18:35:00,38.7,31.1,29.62,North,0,0.0,0.0,74,0.00,,,-99.99,VWS V12.07,2013-04-12 23:35:00,
2013-04-12 18:41:00,38.5,30.9,29.62,North,0,0.0,0.0,74,0.00,,,-99.99,VWS V12.07,2013-04-12 23:41:00,
2013-04-12 18:50:00,38.1,30.9,29.62,North,0,0.0,0.0,75,0.00,,,-99.99,VWS V12.07,2013-04-12 23:50:00,
2013-04-12 18:55:00,37.9,30.7,29.62,North,0,0.0,0.0,75,0.00,,,-99.99,VWS V12.07,2013-04-12 23:55:00,
2013-04-12 19:00:00,37.9,30.7,29.62,North,0,0.0,0.0,75,0.00,,,-99.99,VWS V12.07,2013-04-13 00:00:00,
2013-04-12 19:06:00,37.6,30.4,29.62,North,0,0.0,0.0,75,0.00,,,-99.99,VWS V12.07,2013-04-13 00:06:00,
2013-04-12 19:15:00,37.4,30.2,29.62,North,0,0.0,0.0,75,0.00,,,-99.99,VWS V12.07,2013-04-13 00:15:00,
2013-04-12 19:20:00,37.4,30.2,29.65,North,0,0.0,0.0,75,0.00,,,-99.99,VWS V12.07,2013-04-13 00:20:00,
2013-04-12 19:25:00,37.4,30.2,29.65,North,0,0.0,0.0,75,0.00,,,-99.99,VWS V12.07,2013-04-13 00:25:00,
2013-04-12 19:30:00,37.4,30.2,29.65,North,0,0.0,0.0,75,0.00,,,-99.99,VWS V12.07,2013-04-13 00:30:00,
2013-04-12 19:40:00,37.4,30.2,29.65,North,0,0.0,0.0,75,0.00,,,-99.99,VWS V12.07,2013-04-13 00:40:00,
2013-04-12 19:45:00,37.4,30.2,29.65,North,0,0.0,0.0,75,0.00,,,-99.99,VWS V12.07,2013-04-13 00:45:00,
2013-04-12 19:50:00,37.4,30.2,29.65,North,0,0.0,0.0,75,0.00,,,-99.99,VWS V12.07,2013-04-13 00:50:00,
2013-04-12 19:55:00,37.4,29.9,29.65,North,0,0.0,0.0,74,0.00,,,-99.99,VWS V12.07,2013-04-13 00:55:00,
2013-04-12 20:05:00,37.2,29.7,29.65,North,0,0.0,0.0,74,0.00,,,-99.99,VWS V12.07,2013-04-13 01:05:00,
2013-04-12 20:10:00,37.0,29.5,29.65,North,0,0.0,0.0,74,0.00,,,-99.99,VWS V12.07,2013-04-13 01:10:00,
2013-04-12 20:15:00,37.0,29.2,29.65,North,0,0.0,0.0,73,0.00,,,-99.99,VWS V12.07,2013-04-13 01:15:00,
2013-04-12 20:20:00,37.0,29.2,29.65,North,0,0.0,0.0,73,0.00,,,-99.99,VWS V12.07,2013-04-13 01:20:00,
2013-04-12 20:25:00,36.9,28.7,29.65,North,0,0.0,0.0,72,0.00,,,-99.99,VWS V12.07,2013-04-13 01:25:00,
2013-04-12 20:30:00,36.9,28.4,29.65,North,0,0.0,0.0,71,0.00,,,-99.99,VWS V12.07,2013-04-13 01:30:00,
2013-04-12 20:36:00,36.9,28.0,29.65,North,0,0.0,0.0,70,0.00,,,-99.99,VWS V12.07,2013-04-13 01:36:00,
2013-04-12 20:45:00,36.7,27.5,29.65,North,0,0.0,0.0,69,0.00,,,-99.99,VWS V12.07,2013-04-13 01:45:00,
2013-04-12 20:50:00,36.7,27.1,29.65,North,0,0.0,0.0,68,0.00,,,-99.99,VWS V12.07,2013-04-13 01:50:00,
2013-04-12 20:55:00,36.7,26.8,29.65,North,0,0.0,0.0,67,0.00,,,-99.99,VWS V12.07,2013-04-13 01:55:00,
2013-04-12 21:00:00,36.7,26.8,29.65,North,0,0.0,0.0,67,0.00,,,-99.99,VWS V12.07,2013-04-13 02:00:00,
2013-04-12 21:06:00,36.7,26.8,29.67,North,0,0.0,0.0,67,0.00,,,-99.99,VWS V12.07,2013-04-13 02:06:00,
2013-04-12 21:15:00,36.7,26.4,29.67,North,0,0.0,0.0,66,0.00,,,-99.99,VWS V12.07,2013-04-13 02:15:00,
2013-04-12 21:20:00,36.7,26.4,29.67,North,0,0.0,0.0,66,0.00,,,-99.99,VWS V12.07,2013-04-13 02:20:00,
2013-04-12 21:25:00,36.5,26.2,29.67,North,0,0.0,0.0,66,0.00,,,-99.99,VWS V12.07,2013-04-13 02:25:00,
2013-04-12 21:30:00,36.7,26.0,29.67,North,0,0.0,0.0,65,0.00,,,-99.99,VWS V12.07,2013-04-13 02:30:00,
2013-04-12 21:35:00,36.7,26.0,29.67,North,0,0.0,0.0,65,0.00,,,-99.99,VWS V12.07,2013-04-13 02:35:00,
2013-04-12 21:40:00,36.5,25.9,29.67,North,0,0.0,0.0,65,0.00,,,-99.99,VWS V12.07,2013-04-13 02:40:00,
2013-04-12 21:45:00,36.5,25.9,29.67,North,0,0.0,0.0,65,0.00,,,-99.99,VWS V12.07,2013-04-13 02:45:00,
2013-04-12 21:50:00,36.5,25.9,29.67,North,0,0.0,0.0,65,0.00,,,-99.99,VWS V12.07,2013-04-13 02:50:00,
2013-04-12 21:55:00,36.5,25.9,29.67,North,0,0.0,0.0,65,0.00,,,-99.99,VWS V12.07,2013-04-13 02:55:00,
2013-04-12 22:00:00,36.5,25.9,29.67,North,0,0.0,0.0,65,0.00,,,-99.99,VWS V12.07,2013-04-13 03:00:00,
2013-04-12 22:06:00,36.5,25.9,29.67,North,0,0.0,0.0,65,0.00,,,-99.99,VWS V12.07,2013-04-13 03:06:00,
2013-04-12 22:15:00,36.5,25.9,29.67,North,0,0.0,0.0,65,0.00,,,-99.99,VWS V12.07,2013-04-13 03:15:00,
2013-04-12 22:20:00,36.5,25.9,29.67,North,0,0.0,0.0,65,0.00,,,-99.99,VWS V12.07,2013-04-13 03:20:00,
2013-04-12 22:31:00,36.3,25.7,29.67,North,0,0.0,0.0,65,0.00,,,-99.99,VWS V12.07,2013-04-13 03:31:00,
2013-04-12 22:40:00,36.3,25.3,29.67,North,0,0.0,0.0,64,0.00,,,-99.99,VWS V12.07,2013-04-13 03:40:00,
2013-04-12 22:45:00,36.1,25.1,29.67,North,0,0.0,0.0,64,0.00,,,-99.99,VWS V12.07,2013-04-13 03:45:00,
2013-04-12 22:50:00,36.1,24.8,29.67,North,0,0.0,0.0,63,0.00,,,-99.99,VWS V12.07,2013-04-13 03:50:00,
2013-04-12 22:56:00,36.1,24.8,29.67,North,0,0.0,0.0,63,0.00,,,-99.99,VWS V12.07,2013-04-13 03:56:00,
2013-04-12 23:00:00,36.1,24.4,29.67,North,0,0.0,0.0,62,0.00,,,-99.99,VWS V12.07,2013-04-13 04:00:00,
2013-04-12 23:05:00,36.1,24.4,29.67,North,0,0.0,0.0,62,0.00,,,-99.99,VWS V12.07,2013-04-13 04:05:00,
2013-04-12 23:10:00,36.1,24.4,29.67,North,0,0.0,0.0,62,0.00,,,-99.99,VWS V12.07,2013-04-13 04:10:00,
2013-04-12 23:15:00,36.1,24.0,29.67,North,0,0.0,0.0,61,0.00,,,-99.99,VWS V12.07,2013-04-13 04:15:00,
2013-04-12 23:20:00,36.0,23.8,29.67,North,0,0.0,0.0,61,0.00,,,-99.99,VWS V12.07,2013-04-13 04:20:00,
2013-04-12 23:25:00,36.0,23.4,29.67,North,0,0.0,0.0,60,0.00,,,-99.99,VWS V12.07,2013-04-13 04:25:00,
2013-04-12 23:30:00,36.0,23.4,29.67,North,0,0.0,0.0,60,0.00,,,-99.99,VWS V12.07,2013-04-13 04:30:00,
2013-04-12 23:35:00,35.8,23.3,29.67,North,0,0.0,0.0,60,0.00,,,-99.99,VWS V12.07,2013-04-13 04:35:00,
2013-04-12 23:40:00,35.8,23.3,29.67,North,0,0.0,0.0,60,0.00,,,-99.99,VWS V12.07,2013-04-13 04:40:00,
2013-04-12 23:45:00,35.8,23.3,29.67,North,0,0.0,0.0,60,0.00,,,-99.99,VWS V12.07,2013-04-13 04:45:00,
2013-04-12 23:50:00,35.8,23.3,29.67,North,0,0.0,0.0,60,0.00,,,-99.99,VWS V12.07,2013-04-13 04:50:00,
2013-04-12 23:56:00,35.8,22.9,29.67,North,0,0.0,0.0,59,0.00,,,-99.99,VWS V12.07,2013-04-13 04:56:00,